Regional Weather Roundup
Issued by NWS Jackson, KY

Home | Current Version | Previous Version | Graphics & Text | Print | Product List | Glossary On
Versions: 1 2 3 4 5 6 7 8 9 10 11 12 13 14 15 16 17 18 19 20 21 22 23 24 25 26 27 28 29 30 31 32 33 34 35 36 37 38 39 40 41 42 43 44 45 46 47 48 49 50
000
ASUS43 KJKL 230611
RWRJKL

EAST KENTUCKY HOURLY WEATHER ROUNDUP
NATIONAL WEATHER SERVICE JACKSON KY
200 AM EDT WED APR 23 2014

NOTE: "FAIR" INDICATES FEW OR NO CLOUDS BELOW 12,000 FEET WITH
NO SIGNIFICANT WEATHER AND/OR OBSTRUCTIONS TO VISIBILITY.

* THESE REPORTS ARE NOT UNDER NWS QUALITY CONTROL AND MAY NOT
  REPORT WEATHER SUCH AS PRECIPITATION AND FOG.

KYZ079-080-083-085-087-088-110-112-115-119-120-230700
...EASTERN KENTUCKY...

CITY           SKY/WX    TMP DP  RH WIND       PRES   REMARKS
JACKSON          N/A     49  31  49 N9        29.94R
6HR MIN TEMP:  49; 6HR MAX TEMP:  67;

LONDON           N/A     52  31  44 N7        29.95R
6HR MIN TEMP:  52; 6HR MAX TEMP:  69;

SOMERSET*        N/A     50  30  46 NE8       29.97R
WILLIAMSBURG*  CLEAR     52  32  46 N7        29.95R
MIDDLESBORO*     N/A     55  32  41 N3        29.92S
6HR MIN TEMP:  55; 6HR MAX TEMP:  68;

HARLAN APT*      N/A     54  30  40 N6G17     29.92R
BLACK MTN*       N/A     41  30  65 VRB10       N/A
PIKEVILLE APT* CLEAR     50  32  50 N13       29.91R
BIG SANDY*       N/A     51  33  50 N9G16     29.92R
MOREHEAD APT*  CLEAR     46  30  53 N6        29.98S
$$

KYZ035-036-041-042-044-050-067-078-099-230700
...CENTRAL KENTUCKY...

CITY           SKY/WX    TMP DP  RH WIND       PRES   REMARKS
MT STERLING*     N/A     45  32  61 NE6       29.98F
FLEMING/MASON* CLEAR     45  30  57 N5        29.98S
DANVILLE*        N/A     45  32  61 N6        29.99
RICHMOND*        N/A     46  32  57 N6        29.97R
LEXINGTON        N/A     46  31  55 N3        29.98R
6HR MIN TEMP:  46; 6HR MAX TEMP:  63;

FRANKFORT        N/A     47  30  51 CALM      29.98R
6HR MIN TEMP:  47; 6HR MAX TEMP:  64;

$$

KYZ091>093-OHZ055-061-077-WVZ005-015-034-035-042-230700
...SOUTHERN OHIO/WEST VIRGINIA...

CITY           SKY/WX    TMP DP  RH WIND       PRES   REMARKS
COVINGTON        N/A     44  31  60 N6        29.98S
COLUMBUS       MOCLDY    46  31  55 NW12      29.93R
DAYTON           N/A     40  31  70 NW8       29.98S WCI  34
WILMINGTON       N/A     42  29  59 NW8       29.95S
HUNTINGTON       N/A     48  32  53 NW9G20    29.93R
CHARLESTON       N/A     50  33  52 NW10      29.88S
PINEVILLE*       N/A     53  35  51 MISG      29.91S
BECKLEY          N/A     48  29  47 NW12      29.85S
BLUEFIELD        N/A     53  28  38 NW10      29.85R
$$

VAZ002-007-008-TNZ017-027-036-066-071-230700
...SOUTHWEST VIRGINIA/EAST TENNESSEE...

CITY           SKY/WX    TMP DP  RH WIND       PRES   REMARKS
WISE*            N/A     50  28  43 NW6       29.91R
ABINGDON*        N/A     57  35  44 N5        29.86R
BRISTOL          N/A     54  44  69 N9        29.86R
KNOXVILLE        N/A     58  43  57 N8        29.88R
OAK RIDGE        N/A     56  44  64 CALM      29.91R
CROSSVILLE       N/A     54  35  48 NW3       29.94S
NASHVILLE        N/A     56  40  55 N6        29.96S
$$

...KEY TO REMARKS...
VSB - VISIBILITY IN MILES
WCI - WIND CHILL INDEX
HX  - HEAT INDEX

$$



USA.gov is the U.S. government's official web portal to all federal, state and local government web resources and services.